Weather History for Wautoma, WI

Change the Weather History Date:

Tuesday, August 12, 2014

  Actual Average (KPCZ) Record (KPCZ)
Temperature  
Mean Temperature 65 °F -  
Max Temperature 75 °F 80 °F 92 °F (1965)
Min Temperature 54 °F 55 °F 41 °F (1967)
Growing Degree Days 15 (Base 50)    
Moisture  
Dew Point 52 °F    
Average Humidity 70    
Maximum Humidity 90    
Minimum Humidity 38    
Precipitation  
Precipitation 0.00 in - - ()
Sea Level Pressure  
Sea Level Pressure 29.91 in    
Wind  
Wind Speed 10 mph (NNW)    
Max Wind Speed 17 mph    
Max Gust Speed 25 mph    
Visibility 10 miles    
Events Rain    
Averages and records for this station are not official NWS values.
T = Trace of Precipitation, MM = Missing Value Source: NWS Daily Summary

Daily Weather History Graph

Daily Weather History Graph

Search for Another Location

Airport:

Trip Planner

Search our weather history database for the weather conditions in past years. The results will help you decide how hot, cold, wet, or windy it might be!

Date:

Astronomy

Aug. 12, 2014 Rise Set
Actual Time 5:57 AM CDT 8:06 PM CDT
Civil Twilight 5:25 AM CDT 8:37 PM CDT
Nautical Twilight 4:46 AM CDT 9:16 PM CDT
Astronomical Twilight 4:03 AM CDT 9:59 PM CDT
Moon 9:05 PM CDT (8/12) 8:21 AM CDT (8/12)
Length of Visible Light 15h 11m
Length of Day
14h 08m
Waning Gibbous, 94% of the Moon is Illuminated
Aug 12
Waning Gibbous
Aug 17
Last Quarter
Aug 25
New
Sep 2
First Quarter
Sep 8
Full

Hourly Weather History & Observations

Time (CDT) Temp. Dew Point Humidity Pressure Visibility Wind Dir Wind Speed Gust Speed Precip Events Conditions
12:56 AM 60.8 °F 57.2 °F 88% 29.89 in 10.0 mi NNW 8.1 mph - N/A   Overcast
1:05 AM 60.8 °F 57.2 °F 88% 29.89 in 10.0 mi North 9.2 mph - N/A   Mostly Cloudy
1:39 AM 60.8 °F 57.2 °F 88% 29.89 in 10.0 mi NNW 9.2 mph - N/A   Overcast
1:56 AM 61.0 °F 56.8 °F 86% 29.87 in 10.0 mi NNW 8.1 mph - N/A   Overcast
2:56 AM 59.9 °F 55.9 °F 87% 29.86 in 10.0 mi NNW 10.4 mph - N/A   Overcast
3:56 AM 59.0 °F 54.0 °F 83% 29.86 in 10.0 mi NNW 10.4 mph - N/A   Overcast
4:56 AM 59.0 °F 54.0 °F 83% 29.86 in 10.0 mi North 10.4 mph - 0.00 in Rain Light Rain
5:27 AM 59.0 °F 53.6 °F 82% 29.88 in 10.0 mi North 9.2 mph 20.7 mph 0.00 in Rain Light Rain
5:56 AM 57.9 °F 52.9 °F 83% 29.88 in 10.0 mi NNW 9.2 mph 17.3 mph 0.00 in Rain Light Rain
6:56 AM 57.9 °F 52.9 °F 83% 29.89 in 10.0 mi NNW 11.5 mph 17.3 mph 0.00 in   Overcast
7:56 AM 57.9 °F 52.9 °F 83% 29.91 in 10.0 mi NNW 10.4 mph - N/A   Overcast
8:56 AM 59.0 °F 52.0 °F 78% 29.91 in 10.0 mi North 16.1 mph 21.9 mph N/A   Overcast
9:56 AM 61.9 °F 52.0 °F 70% 29.91 in 10.0 mi NNW 13.8 mph 21.9 mph N/A   Mostly Cloudy
12:56 PM 72.0 °F 50.0 °F 46% 29.91 in 10.0 mi North 16.1 mph 21.9 mph N/A   Clear
1:56 PM 72.9 °F 50.9 °F 46% 29.90 in 10.0 mi NNW 17.3 mph 25.3 mph N/A   Partly Cloudy
3:56 PM 74.8 °F 50.9 °F 43% 29.90 in 10.0 mi NW 16.1 mph 21.9 mph N/A   Partly Cloudy
4:56 PM 75.9 °F 50.0 °F 40% 29.90 in 10.0 mi NW 13.8 mph - N/A   Partly Cloudy
5:56 PM 74.8 °F 47.8 °F 38% 29.91 in 10.0 mi NNW 12.7 mph 21.9 mph N/A   Clear
6:56 PM 73.4 °F 48.2 °F 41% 29.93 in 10.0 mi NNW 11.5 mph - N/A   Clear
7:56 PM 70.0 °F 47.8 °F 45% 29.94 in 10.0 mi NW 6.9 mph - N/A   Clear
8:56 PM 64.9 °F 48.9 °F 56% 29.96 in 10.0 mi NNW 5.8 mph - N/A   Clear
9:56 PM 57.2 °F 51.8 °F 82% 29.98 in 10.0 mi Calm Calm - N/A   Clear
10:56 PM 55.9 °F 50.9 °F 83% 29.98 in 10.0 mi Calm Calm - N/A   Clear
11:56 PM 54.9 °F 52.0 °F 90% 29.98 in 10.0 mi Calm Calm - N/A   Clear